Location: Newark
(20.1720°N, 90.0102°W)
Time: 04:56:17
(UTC+00:00)

Envisat - Pass Details

Date: 27 August 2019
Orbit: 764 x 766 km, 98.1° (Epoch: 22 September)

Event Time Altitude Azimuth Distance (km) Brightness Sun altitude
Rises 00:44:11 0° 177° (S) 3,218 6.1 -6.2°
Reaches altitude 10° 00:46:31 10° 181° (S) 2,294 5.4 -6.8°
Maximum altitude 00:51:28 56° 259° (W) 903 3.8 -7.9°
Drops below altitude 10° 00:56:26 10° 337° (NNW) 2,300 6.0 -9.0°
Sets 00:58:47 0° 342° (NNW) 3,227 6.7 -9.6°
